Location: Newark
(25.6108°S, 54.5803°W)
Time: 16:50:23
(UTC+00:00)

Courier 1B Rocket - Pass Details

Date: 31 October 2020
Orbit: 920 x 1202 km, 28.2° (Epoch: 22 November)

Event Time Altitude Azimuth Distance (km) Brightness Sun altitude
Rises 12:09:00 0° 259° (W) 3,848 7.7 43.6°
Reaches altitude 10° 12:11:49 10° 258° (WSW) 2,849 7.1 44.2°
Maximum altitude 12:18:45 82° 170° (S) 1,001 6.0 45.7°
Drops below altitude 10° 12:25:12 10° 82° (E) 2,665 8.3 47.2°
Sets 12:27:46 0° 81° (E) 3,585 8.7 47.8°
